MAYA-1 (43590 NORAD) Tracking and Keplerian Element Data

This shows tracking and keplerian element data for the satellite.

Feedback or suggestion? Click here.




ElementValue
Catalog43590
NameMAYA-1
Epoch Orbit5237
Epoch Day193.33851761
Epoch Year2019
RAAN223.4585
Inclination51.6351
Eccentricity0.0004751
Argument of Perigee247.593
Mean Anonmoly112.4561
Mean Motion15.62238747
Decay Rate8.907E-05
L11 43590U 98067PE 19193.33851761 .00008907 00000-0 10491-3 0 9990
L22 43590 51.6351 223.4585 0004751 247.5930 112.4561 15.62238747 52372

Live tracking and technical data element details for MAYA-1 (NORAD 43590). MAYA-1 can be tracked NOW for your location showing map with azimuth and elevation plus other details from your city location.

Track the satellite on the map from your city or location and see movement details for azimuth, elevation, latitude, longitude, range, height, and movement on the map or in text.







IsCatalogInMostPopularTable: catalog: 43590, numindb: 161
Update: records affected: 1



GetName: 43590 MAYA-1

Hit Count: updated at: Tue, 16 Jul 2019 20:33:39 GMT